Pittsfield, IL

5:22 AM CDT on April 22, 2018 (GMT -0500)
Pittsfield Penstone Municipal

Weather History for KPPQ - November, 2012

Change the Weather History Date:

Monday, November 26, 2012

  Actual Average (KUIN) Record (KUIN)
Temperature  
Mean Temperature 36 °F -  
Max Temperature 43 °F 47 °F 75 °F (1965)
Min Temperature 30 °F 32 °F 5 °F (1977)
Degree Days  
Heating Degree Days 28    
Moisture  
Dew Point 26 °F    
Average Humidity 72    
Maximum Humidity 83    
Minimum Humidity 46    
Precipitation  
Precipitation 0.00 in - - ()
Sea Level Pressure  
Sea Level Pressure 30.22 in    
Wind  
Wind Speed 8 mph (North)    
Max Wind Speed 16 mph    
Max Gust Speed 21 mph    
Visibility 10 miles    
Events      
Averages and records for this station are not official NWS values.
T = Trace of Precipitation, MM = Missing Value Source: NWS Daily Summary

Daily Weather History Graph

Daily Weather History Graph

Search for Another Location

Airport or City:

Astronomy

Nov. 26, 2012 Rise Set
Actual Time 7:00 AM CST 4:40 PM CST
Civil Twilight 6:30 AM CST 5:10 PM CST
Nautical Twilight 5:57 AM CST 5:43 PM CST
Astronomical Twilight 5:25 AM CST 6:15 PM CST
Moon 3:33 PM CST (11/26) 5:10 AM CST (11/26)
Length of Visible Light 10h 39m
Length of Day
9h 40m
Waxing Gibbous, 97% of the Moon is Illuminated
Nov 26
Waxing Gibbous
Nov 28
Full
Dec 6
Last Quarter
Dec 13
New
Dec 19
First Quarter

Hourly Weather History & Observations

Time (CST) Temp. Windchill Dew Point Humidity Pressure Visibility Wind Dir Wind Speed Gust Speed Precip Events Conditions
12:15 AM 35.2 °F 28.8 °F 28.0 °F 75% 30.08 in 10.0 mi NNE 8.1 mph - N/A   Clear
12:35 AM 34.7 °F 28.1 °F 27.7 °F 76% 30.08 in 10.0 mi NNE 8.1 mph - N/A   Clear
12:55 AM 34.0 °F 28.0 °F 27.5 °F 77% 30.08 in 10.0 mi NNE 6.9 mph - N/A   Clear
1:15 AM 33.8 °F 27.0 °F 27.5 °F 78% 30.08 in 10.0 mi North 8.1 mph - N/A   Clear
1:35 AM 33.6 °F 28.4 °F 27.5 °F 78% 30.09 in 10.0 mi North 5.8 mph - N/A   Clear
1:55 AM 33.1 °F 27.7 °F 27.3 °F 79% 30.10 in 10.0 mi North 5.8 mph - N/A   Clear
2:15 AM 32.9 °F 29.8 °F 27.1 °F 79% 30.12 in 10.0 mi NNE 3.5 mph - N/A   Clear
2:35 AM 32.0 °F - 27.0 °F 82% 30.13 in 10.0 mi Calm Calm - N/A   Clear
2:55 AM 31.8 °F - 27.0 °F 82% 30.13 in 10.0 mi Calm Calm - N/A   Clear
3:15 AM 32.0 °F 28.7 °F 27.0 °F 82% 30.13 in 10.0 mi North 3.5 mph - N/A   Clear
3:35 AM 30.9 °F - 26.2 °F 83% 30.13 in 10.0 mi Calm Calm - N/A   Clear
3:55 AM 32.0 °F - 26.6 °F 80% 30.14 in 10.0 mi Calm Calm - N/A   Clear
4:15 AM 31.1 °F 27.7 °F 25.9 °F 81% 30.14 in 10.0 mi North 3.5 mph - N/A   Clear
4:35 AM 31.5 °F 24.9 °F 26.2 °F 81% 30.14 in 10.0 mi North 6.9 mph - N/A   Clear
4:55 AM 31.6 °F 25.1 °F 26.4 °F 81% 30.15 in 10.0 mi North 6.9 mph - N/A   Clear
5:15 AM 31.6 °F 27.0 °F 26.4 °F 81% 30.15 in 10.0 mi NNE 4.6 mph - N/A   Clear
5:35 AM 31.5 °F 26.8 °F 26.2 °F 81% 30.16 in 10.0 mi North 4.6 mph - N/A   Clear
5:55 AM 31.1 °F 24.5 °F 26.1 °F 82% 30.18 in 10.0 mi North 6.9 mph - N/A   Clear
6:15 AM 31.1 °F 25.4 °F 25.7 °F 80% 30.18 in 10.0 mi NNE 5.8 mph - N/A   Clear
6:35 AM 30.9 °F 24.3 °F 25.7 °F 81% 30.19 in 10.0 mi North 6.9 mph - N/A   Clear
6:55 AM 30.7 °F 24.9 °F 25.7 °F 82% 30.20 in 10.0 mi North 5.8 mph - N/A   Clear
7:15 AM 30.7 °F 24.9 °F 25.7 °F 82% 30.20 in 10.0 mi North 5.8 mph - N/A   Clear
7:35 AM 31.1 °F 23.7 °F 26.2 °F 82% 30.21 in 10.0 mi North 8.1 mph - N/A   Clear
7:55 AM 32.0 °F 26.4 °F 26.4 °F 80% 30.22 in 10.0 mi NNE 5.8 mph - N/A   Clear
8:15 AM 32.2 °F 25.8 °F 27.0 °F 81% 30.23 in 10.0 mi NNE 6.9 mph - N/A   Clear
8:35 AM 33.8 °F 28.6 °F 27.7 °F 78% 30.23 in 10.0 mi NNE 5.8 mph - N/A   Clear
8:55 AM 34.9 °F 29.0 °F 28.0 °F 76% 30.24 in 10.0 mi NE 6.9 mph - N/A   Clear
9:15 AM 35.8 °F 28.3 °F 28.0 °F 73% 30.24 in 10.0 mi NE 10.4 mph - N/A   Clear
9:35 AM 36.5 °F 30.3 °F 27.9 °F 71% 30.25 in 10.0 mi NE 8.1 mph - N/A   Clear
9:55 AM 37.4 °F 29.8 °F 28.2 °F 69% 30.25 in 10.0 mi NE 11.5 mph - N/A   Clear
10:15 AM 38.1 °F 30.7 °F 28.4 °F 68% 30.25 in 10.0 mi NNE 11.5 mph 17.3 mph N/A   Clear
10:35 AM 39.2 °F 33.6 °F 28.8 °F 66% 30.26 in 10.0 mi NNE 8.1 mph - N/A   Clear
10:55 AM 39.9 °F 32.9 °F 28.0 °F 63% 30.26 in 10.0 mi NE 11.5 mph - N/A   Clear
11:15 AM 40.8 °F 35.0 °F 28.2 °F 61% 30.26 in 10.0 mi NE 9.2 mph - N/A   Clear
11:35 AM 41.9 °F 36.3 °F 27.7 °F 57% 30.25 in 10.0 mi NNE 9.2 mph - N/A   Clear
11:55 AM 42.1 °F 36.1 °F 26.4 °F 54% 30.25 in 10.0 mi NE 10.4 mph - N/A   Clear
12:15 PM 43.0 °F 37.7 °F 26.8 °F 53% 30.26 in 10.0 mi NNE 9.2 mph - N/A   Clear
12:35 PM 41.9 °F 35.4 °F 24.4 °F 50% 30.26 in 10.0 mi NNE 11.5 mph - N/A   Clear
12:55 PM 43.5 °F 37.9 °F 25.0 °F 48% 30.26 in 10.0 mi North 10.4 mph 16.1 mph N/A   Scattered Clouds
1:15 PM 43.7 °F 36.9 °F 24.3 °F 46% 30.26 in 10.0 mi North 13.8 mph - N/A   Mostly Cloudy
1:35 PM 43.0 °F 35.4 °F 23.5 °F 46% 30.26 in 10.0 mi North 16.1 mph 20.7 mph N/A   Overcast
1:55 PM 40.8 °F 32.6 °F 23.4 °F 50% 30.27 in 10.0 mi North 16.1 mph - N/A   Overcast
2:15 PM 39.4 °F 31.4 °F 24.4 °F 55% 30.28 in 10.0 mi North 13.8 mph - N/A   Overcast
2:35 PM 39.2 °F 32.5 °F 24.6 °F 56% 30.28 in 10.0 mi North 10.4 mph 19.6 mph N/A   Overcast
2:55 PM 38.3 °F 29.7 °F 26.2 °F 62% 30.28 in 10.0 mi NNW 15.0 mph 20.7 mph N/A   Overcast
3:15 PM 36.7 °F 28.0 °F 27.3 °F 69% 30.29 in 10.0 mi NNW 13.8 mph - N/A   Overcast
3:35 PM 35.4 °F 26.8 °F 27.7 °F 73% 30.30 in 10.0 mi North 12.7 mph - N/A   Overcast
3:55 PM 34.2 °F 24.4 °F 28.0 °F 78% 30.31 in 10.0 mi NNW 15.0 mph - N/A   Overcast
4:15 PM 33.3 °F 22.8 °F 27.1 °F 78% 30.32 in 10.0 mi NNW 16.1 mph - N/A   Overcast
4:35 PM 32.5 °F 21.9 °F 23.9 °F 70% 30.33 in 10.0 mi NNW 16.1 mph - N/A   Overcast
4:55 PM 32.0 °F 21.6 °F 23.9 °F 72% 30.33 in 10.0 mi North 15.0 mph 18.4 mph N/A   Overcast
5:15 PM 31.6 °F 20.7 °F 24.8 °F 76% 30.34 in 10.0 mi NNW 16.1 mph 19.6 mph N/A   Overcast
5:35 PM 30.9 °F 22.2 °F 24.8 °F 78% 30.34 in 10.0 mi North 10.4 mph - N/A   Overcast
5:55 PM 31.1 °F 24.5 °F 24.6 °F 77% 30.35 in 10.0 mi NNW 6.9 mph - N/A   Mostly Cloudy